Location: Bay Shore Mobile Home Park
(38.5762°N, 75.0841°W)
Time: 09:04:32
(UTC+00:00)

Cosmos 1536 Rocket - Pass Details

Date: 15 November 2025
Orbit: 599 x 625 km, 82.5° (Epoch: 04 December)

Event Time Altitude Azimuth Distance (km) Brightness Sun altitude
Rises 22:51:25 0° 5° (N) 2,911 6.8 -12.8°
Reaches altitude 10° 22:54:00 10° 19° (NNE) 1,997 5.9 -13.2°
Maximum altitude 22:57:41 25° 75° (ENE) 1,246 4.5 -13.9°
Drops below altitude 10° 23:01:19 10° 132° (SE) 1,973 5.8 -14.6°
Sets 23:03:50 0° 145° (SE) 2,868 6.8 -15.1°
